owner,sensor,date,latitude,longitude,vertical_datum,wind_speed,wind_to_direction,wind_speed_of_gust,qcFlag 
TCOON,ioos:station:TCOON:524:1,2019-08-01T00:00:00Z,29.8672,-93.9310,0.0,2.6,180.0,3.6,'11111222,11111222,11111222' 
TCOON,ioos:station:TCOON:524:1,2019-08-01T00:06:00Z,29.8672,-93.9310,0.0,3.1,200.0,4.1,'11111222,11111222,11111222' 
TCOON,ioos:station:TCOON:524:1,2019-08-01T00:12:00Z,29.8672,-93.9310,0.0,2.6,180.0,4.1,'11111222,11111222,11111222' 
TCOON,ioos:station:TCOON:524:1,2019-08-01T00:18:00Z,29.8672,-93.9310,0.0,2.6,170.0,4.1,'11111222,11111222,11111222' 
TCOON,ioos:station:TCOON:524:1,2019-08-01T00:24:00Z,29.8672,-93.9310,0.0,2.6,172.0,4.0,'11111222,11111222,11111222' 
TCOON,ioos:station:TCOON:524:1,2019-08-01T00:30:00Z,29.8672,-93.9310,0.0,2.6,180.0,4.1,'11111222,11111222,11111222' 
TCOON,ioos:station:TCOON:524:1,2019-08-01T00:36:00Z,29.8672,-93.9310,0.0,2.6,180.0,4.1,'11111222,11111222,11111222' 
TCOON,ioos:station:TCOON:524:1,2019-08-01T00:42:00Z,29.8672,-93.9310,0.0,2.6,180.0,3.1,'11111222,11111222,11111222' 
TCOON,ioos:station:TCOON:524:1,2019-08-01T00:48:00Z,29.8672,-93.9310,0.0,2.1,180.0,3.1,'11111222,11111222,11111222' 
TCOON,ioos:station:TCOON:524:1,2019-08-01T00:54:00Z,29.8672,-93.9310,0.0,2.6,180.0,3.1,'11111222,11111222,11111222' 
TCOON,ioos:station:TCOON:524:1,2019-08-01T01:00:00Z,29.8672,-93.9310,0.0,2.1,190.0,3.1,'11111222,11111222,11111222' 
TCOON,ioos:station:TCOON:524:1,2019-08-01T01:06:00Z,29.8672,-93.9310,0.0,1.5,190.0,2.6,'11111222,11111222,11111222' 
TCOON,ioos:station:TCOON:524:1,2019-08-01T01:12:00Z,29.8672,-93.9310,0.0,1.5,190.0,2.6,'11111222,11111222,11111222' 
TCOON,ioos:station:TCOON:524:1,2019-08-01T01:18:00Z,29.8672,-93.9310,0.0,1.5,170.0,2.6,'11111222,11111222,11111222' 
TCOON,ioos:station:TCOON:524:1,2019-08-01T01:24:00Z,29.8672,-93.9310,0.0,1.6,170.0,2.4,'11111222,11111222,11111222' 
TCOON,ioos:station:TCOON:524:1,2019-08-01T01:30:00Z,29.8672,-93.9310,0.0,1.5,180.0,2.6,'11111222,11111222,11111222' 
TCOON,ioos:station:TCOON:524:1,2019-08-01T01:36:00Z,29.8672,-93.9310,0.0,1.5,180.0,2.6,'11111222,11111222,11111222' 
TCOON,ioos:station:TCOON:524:1,2019-08-01T01:42:00Z,29.8672,-93.9310,0.0,1.5,180.0,3.1,'11111222,11111222,11111222' 
TCOON,ioos:station:TCOON:524:1,2019-08-01T01:48:00Z,29.8672,-93.9310,0.0,1.5,170.0,2.6,'11111222,11111222,11111222' 
TCOON,ioos:station:TCOON:524:1,2019-08-01T01:54:00Z,29.8672,-93.9310,0.0,1.5,170.0,2.6,'11111222,11111222,11111222' 
TCOON,ioos:station:TCOON:524:1,2019-08-01T02:00:00Z,29.8672,-93.9310,0.0,1.5,180.0,2.1,'11111222,11111222,11111222' 
TCOON,ioos:station:TCOON:524:1,2019-08-01T02:06:00Z,29.8672,-93.9310,0.0,1.0,170.0,2.1,'11111222,11111222,11111222' 
TCOON,ioos:station:TCOON:524:1,2019-08-01T02:12:00Z,29.8672,-93.9310,0.0,1.5,180.0,1.5,'11111222,11111222,11111222' 
TCOON,ioos:station:TCOON:524:1,2019-08-01T02:18:00Z,29.8672,-93.9310,0.0,1.5,170.0,2.6,'11111222,11111222,11111222' 
TCOON,ioos:station:TCOON:524:1,2019-08-01T02:24:00Z,29.8672,-93.9310,0.0,1.6,174.0,2.3,'11111222,11111222,11111222' 
TCOON,ioos:station:TCOON:524:1,2019-08-01T02:30:00Z,29.8672,-93.9310,0.0,1.5,180.0,2.6,'11111222,11111222,11111222' 
TCOON,ioos:station:TCOON:524:1,2019-08-01T02:36:00Z,29.8672,-93.9310,0.0,2.1,160.0,3.1,'11111222,11111222,11111222' 
TCOON,ioos:station:TCOON:524:1,2019-08-01T02:42:00Z,29.8672,-93.9310,0.0,2.1,160.0,2.6,'11111222,11111222,11111222' 
TCOON,ioos:station:TCOON:524:1,2019-08-01T02:48:00Z,29.8672,-93.9310,0.0,1.5,190.0,2.6,'11111222,11111222,11111222' 
TCOON,ioos:station:TCOON:524:1,2019-08-01T02:54:00Z,29.8672,-93.9310,0.0,1.5,190.0,2.6,'11111222,11111222,11111222' 
TCOON,ioos:station:TCOON:524:1,2019-08-01T03:00:00Z,29.8672,-93.9310,0.0,1.5,190.0,2.1,'11111222,11111222,11111222' 
TCOON,ioos:station:TCOON:524:1,2019-08-01T03:06:00Z,29.8672,-93.9310,0.0,1.5,180.0,2.6,'11111222,11111222,11111222' 
TCOON,ioos:station:TCOON:524:1,2019-08-01T03:12:00Z,29.8672,-93.9310,0.0,1.5,180.0,2.1,'11111222,11111222,11111222' 
TCOON,ioos:station:TCOON:524:1,2019-08-01T03:18:00Z,29.8672,-93.9310,0.0,1.5,180.0,2.6,'11111222,11111222,11111222' 
TCOON,ioos:station:TCOON:524:1,2019-08-01T03:24:00Z,29.8672,-93.9310,0.0,1.6,184.0,2.3,'11111222,11111222,11111222' 
TCOON,ioos:station:TCOON:524:1,2019-08-01T03:30:00Z,29.8672,-93.9310,0.0,2.1,180.0,2.6,'11111222,11111222,11111222' 
TCOON,ioos:station:TCOON:524:1,2019-08-01T03:36:00Z,29.8672,-93.9310,0.0,1.5,180.0,2.6,'11111222,11111222,11111222' 
TCOON,ioos:station:TCOON:524:1,2019-08-01T03:42:00Z,29.8672,-93.9310,0.0,1.5,180.0,2.6,'11111222,11111222,11111222' 
TCOON,ioos:station:TCOON:524:1,2019-08-01T03:48:00Z,29.8672,-93.9310,0.0,1.5,190.0,2.1,'11111222,11111222,11111222' 
TCOON,ioos:station:TCOON:524:1,2019-08-01T03:54:00Z,29.8672,-93.9310,0.0,1.5,180.0,2.1,'11111222,11111222,11111222' 
TCOON,ioos:station:TCOON:524:1,2019-08-01T04:00:00Z,29.8672,-93.9310,0.0,1.5,190.0,2.1,'11111222,11111222,11111222' 
TCOON,ioos:station:TCOON:524:1,2019-08-01T04:06:00Z,29.8672,-93.9310,0.0,1.5,190.0,2.1,'11111222,11111222,11111222' 
TCOON,ioos:station:TCOON:524:1,2019-08-01T04:12:00Z,29.8672,-93.9310,0.0,1.5,180.0,2.6,'11111222,11111222,11111222' 
TCOON,ioos:station:TCOON:524:1,2019-08-01T04:18:00Z,29.8672,-93.9310,0.0,1.5,180.0,2.6,'11111222,11111222,11111222' 
TCOON,ioos:station:TCOON:524:1,2019-08-01T04:24:00Z,29.8672,-93.9310,0.0,1.6,182.0,2.4,'11111222,11111222,11111222' 
TCOON,ioos:station:TCOON:524:1,2019-08-01T04:30:00Z,29.8672,-93.9310,0.0,1.5,180.0,2.6,'11111222,11111222,11111222' 
TCOON,ioos:station:TCOON:524:1,2019-08-01T04:36:00Z,29.8672,-93.9310,0.0,1.5,180.0,2.6,'11111222,11111222,11111222' 
TCOON,ioos:station:TCOON:524:1,2019-08-01T04:42:00Z,29.8672,-93.9310,0.0,1.5,180.0,2.1,'11111222,11111222,11111222' 
TCOON,ioos:station:TCOON:524:1,2019-08-01T04:48:00Z,29.8672,-93.9310,0.0,1.5,170.0,2.1,'11111222,11111222,11111222' 
TCOON,ioos:station:TCOON:524:1,2019-08-01T04:54:00Z,29.8672,-93.9310,0.0,1.0,170.0,1.5,'11111222,11111222,11111222' 
TCOON,ioos:station:TCOON:524:1,2019-08-01T05:00:00Z,29.8672,-93.9310,0.0,1.5,170.0,2.1,'11111222,11111222,11111222' 
TCOON,ioos:station:TCOON:524:1,2019-08-01T05:06:00Z,29.8672,-93.9310,0.0,1.0,160.0,1.5,'11111222,11111222,11111222' 
TCOON,ioos:station:TCOON:524:1,2019-08-01T05:12:00Z,29.8672,-93.9310,0.0,1.0,180.0,1.5,'11111222,11111222,11111222' 
TCOON,ioos:station:TCOON:524:1,2019-08-01T05:18:00Z,29.8672,-93.9310,0.0,1.5,160.0,1.5,'11111222,11111222,11111222' 
TCOON,ioos:station:TCOON:524:1,2019-08-01T05:24:00Z,29.8672,-93.9310,0.0,1.3,160.0,1.7,'11111222,11111222,11111222' 
TCOON,ioos:station:TCOON:524:1,2019-08-01T05:30:00Z,29.8672,-93.9310,0.0,1.5,180.0,2.1,'11111222,11111222,11111222' 
TCOON,ioos:station:TCOON:524:1,2019-08-01T05:36:00Z,29.8672,-93.9310,0.0,1.5,190.0,2.1,'11111222,11111222,11111222' 
TCOON,ioos:station:TCOON:524:1,2019-08-01T05:42:00Z,29.8672,-93.9310,0.0,1.0,180.0,1.5,'11111222,11111222,11111222' 
TCOON,ioos:station:TCOON:524:1,2019-08-01T05:48:00Z,29.8672,-93.9310,0.0,1.0,160.0,1.5,'11111222,11111222,11111222' 
TCOON,ioos:station:TCOON:524:1,2019-08-01T05:54:00Z,29.8672,-93.9310,0.0,1.0,170.0,1.5,'11111222,11111222,11111222' 
TCOON,ioos:station:TCOON:524:1,2019-08-01T06:00:00Z,29.8672,-93.9310,0.0,1.0,170.0,1.5,'11111222,11111222,11111222' 
TCOON,ioos:station:TCOON:524:1,2019-08-01T06:06:00Z,29.8672,-93.9310,0.0,1.5,180.0,2.1,'11111222,11111222,11111222' 
TCOON,ioos:station:TCOON:524:1,2019-08-01T06:12:00Z,29.8672,-93.9310,0.0,1.5,190.0,2.1,'11111222,11111222,11111222' 
TCOON,ioos:station:TCOON:524:1,2019-08-01T06:18:00Z,29.8672,-93.9310,0.0,1.5,180.0,2.1,'11111222,11111222,11111222' 
TCOON,ioos:station:TCOON:524:1,2019-08-01T06:24:00Z,29.8672,-93.9310,0.0,1.3,179.0,1.9,'11111222,11111222,11111222' 
TCOON,ioos:station:TCOON:524:1,2019-08-01T06:30:00Z,29.8672,-93.9310,0.0,1.0,170.0,1.5,'11111222,11111222,11111222' 
TCOON,ioos:station:TCOON:524:1,2019-08-01T06:36:00Z,29.8672,-93.9310,0.0,1.5,170.0,2.1,'11111222,11111222,11111222' 
TCOON,ioos:station:TCOON:524:1,2019-08-01T06:42:00Z,29.8672,-93.9310,0.0,1.5,180.0,2.1,'11111222,11111222,11111222' 
TCOON,ioos:station:TCOON:524:1,2019-08-01T06:48:00Z,29.8672,-93.9310,0.0,1.5,170.0,2.1,'11111222,11111222,11111222' 
TCOON,ioos:station:TCOON:524:1,2019-08-01T06:54:00Z,29.8672,-93.9310,0.0,1.5,170.0,2.1,'11111222,11111222,11111222' 
TCOON,ioos:station:TCOON:524:1,2019-08-01T07:00:00Z,29.8672,-93.9310,0.0,1.5,180.0,2.1,'11111222,11111222,11111222' 
TCOON,ioos:station:TCOON:524:1,2019-08-01T07:06:00Z,29.8672,-93.9310,0.0,1.5,190.0,2.1,'11111222,11111222,11111222' 
TCOON,ioos:station:TCOON:524:1,2019-08-01T07:12:00Z,29.8672,-93.9310,0.0,1.5,180.0,2.1,'11111222,11111222,11111222' 
TCOON,ioos:station:TCOON:524:1,2019-08-01T07:18:00Z,29.8672,-93.9310,0.0,1.5,180.0,2.1,'11111222,11111222,11111222' 
TCOON,ioos:station:TCOON:524:1,2019-08-01T07:24:00Z,29.8672,-93.9310,0.0,1.4,177.0,2.2,'11111222,11111222,11111222' 
TCOON,ioos:station:TCOON:524:1,2019-08-01T07:30:00Z,29.8672,-93.9310,0.0,1.0,170.0,1.5,'11111222,11111222,11111222' 
TCOON,ioos:station:TCOON:524:1,2019-08-01T07:36:00Z,29.8672,-93.9310,0.0,1.0,170.0,1.5,'11111222,11111222,11111222' 
TCOON,ioos:station:TCOON:524:1,2019-08-01T07:42:00Z,29.8672,-93.9310,0.0,1.5,180.0,2.1,'11111222,11111222,11111222' 
TCOON,ioos:station:TCOON:524:1,2019-08-01T07:48:00Z,29.8672,-93.9310,0.0,1.5,170.0,2.1,'11111222,11111222,11111222' 
TCOON,ioos:station:TCOON:524:1,2019-08-01T07:54:00Z,29.8672,-93.9310,0.0,1.0,180.0,2.1,'11111222,11111222,11111222' 
TCOON,ioos:station:TCOON:524:1,2019-08-01T08:00:00Z,29.8672,-93.9310,0.0,1.0,190.0,1.5,'11111222,11111222,11111222' 
TCOON,ioos:station:TCOON:524:1,2019-08-01T08:06:00Z,29.8672,-93.9310,0.0,1.5,180.0,2.1,'11111222,11111222,11111222' 
TCOON,ioos:station:TCOON:524:1,2019-08-01T08:12:00Z,29.8672,-93.9310,0.0,1.5,180.0,2.1,'11111222,11111222,11111222' 
TCOON,ioos:station:TCOON:524:1,2019-08-01T08:18:00Z,29.8672,-93.9310,0.0,1.0,160.0,2.1,'11111222,11111222,11111222' 
TCOON,ioos:station:TCOON:524:1,2019-08-01T08:24:00Z,29.8672,-93.9310,0.0,1.1,162.0,1.9,'11111222,11111222,11111222' 
TCOON,ioos:station:TCOON:524:1,2019-08-01T08:30:00Z,29.8672,-93.9310,0.0,1.0,180.0,1.5,'11111222,11111222,11111222' 
TCOON,ioos:station:TCOON:524:1,2019-08-01T08:36:00Z,29.8672,-93.9310,0.0,1.0,190.0,1.5,'11111222,11111222,11111222' 
TCOON,ioos:station:TCOON:524:1,2019-08-01T08:42:00Z,29.8672,-93.9310,0.0,1.0,180.0,1.5,'11111222,11111222,11111222' 
TCOON,ioos:station:TCOON:524:1,2019-08-01T08:48:00Z,29.8672,-93.9310,0.0,1.0,170.0,1.5,'11111222,11111222,11111222' 
TCOON,ioos:station:TCOON:524:1,2019-08-01T08:54:00Z,29.8672,-93.9310,0.0,0.0,-9999.0,1.5,'11111222,99999999,11111222' 
TCOON,ioos:station:TCOON:524:1,2019-08-01T09:00:00Z,29.8672,-93.9310,0.0,0.5,210.0,1.0,'11111222,11111222,11111222' 
TCOON,ioos:station:TCOON:524:1,2019-08-01T09:06:00Z,29.8672,-93.9310,0.0,1.0,180.0,1.0,'11111222,11111222,11111222' 
TCOON,ioos:station:TCOON:524:1,2019-08-01T09:12:00Z,29.8672,-93.9310,0.0,0.5,190.0,1.0,'11111222,11111222,11111222' 
TCOON,ioos:station:TCOON:524:1,2019-08-01T09:18:00Z,29.8672,-93.9310,0.0,1.0,200.0,1.0,'11111222,11111222,11111222' 
TCOON,ioos:station:TCOON:524:1,2019-08-01T09:24:00Z,29.8672,-93.9310,0.0,0.8,195.0,1.1,'11111222,11111222,11111222' 
TCOON,ioos:station:TCOON:524:1,2019-08-01T09:30:00Z,29.8672,-93.9310,0.0,1.0,180.0,1.5,'11111222,11111222,11111222' 
TCOON,ioos:station:TCOON:524:1,2019-08-01T09:36:00Z,29.8672,-93.9310,0.0,1.0,180.0,1.5,'11111222,11111222,11111222' 
TCOON,ioos:station:TCOON:524:1,2019-08-01T09:42:00Z,29.8672,-93.9310,0.0,0.5,170.0,1.0,'11111222,11111222,11111222' 
TCOON,ioos:station:TCOON:524:1,2019-08-01T09:48:00Z,29.8672,-93.9310,0.0,1.0,170.0,1.0,'11111222,11111222,11111222' 
TCOON,ioos:station:TCOON:524:1,2019-08-01T09:54:00Z,29.8672,-93.9310,0.0,1.0,170.0,1.5,'11111222,11111222,11111222' 
TCOON,ioos:station:TCOON:524:1,2019-08-01T10:00:00Z,29.8672,-93.9310,0.0,1.0,150.0,1.0,'11111222,11111222,11111222' 
TCOON,ioos:station:TCOON:524:1,2019-08-01T10:06:00Z,29.8672,-93.9310,0.0,1.5,150.0,1.5,'11111222,11111222,11111222' 
TCOON,ioos:station:TCOON:524:1,2019-08-01T10:12:00Z,29.8672,-93.9310,0.0,1.5,160.0,2.1,'11111222,11111222,11111222' 
TCOON,ioos:station:TCOON:524:1,2019-08-01T10:18:00Z,29.8672,-93.9310,0.0,1.0,160.0,2.1,'11111222,11111222,11111222' 
TCOON,ioos:station:TCOON:524:1,2019-08-01T10:24:00Z,29.8672,-93.9310,0.0,1.2,157.0,1.9,'11111222,11111222,11111222' 
TCOON,ioos:station:TCOON:524:1,2019-08-01T10:30:00Z,29.8672,-93.9310,0.0,0.0,-9999.0,0.5,'11111222,99999999,11111222' 
TCOON,ioos:station:TCOON:524:1,2019-08-01T10:36:00Z,29.8672,-93.9310,0.0,0.0,-9999.0,1.0,'11111222,99999999,11111222' 
TCOON,ioos:station:TCOON:524:1,2019-08-01T10:48:00Z,29.8672,-93.9310,0.0,0.0,-9999.0,1.0,'11111222,99999999,11111222' 
TCOON,ioos:station:TCOON:524:1,2019-08-01T10:54:00Z,29.8672,-93.9310,0.0,0.0,-9999.0,0.5,'11111222,99999999,11111222' 
TCOON,ioos:station:TCOON:524:1,2019-08-01T11:00:00Z,29.8672,-93.9310,0.0,0.5,10.0,1.0,'11111222,11111222,11111222' 
TCOON,ioos:station:TCOON:524:1,2019-08-01T11:06:00Z,29.8672,-93.9310,0.0,0.0,-9999.0,0.5,'11111222,99999999,11111222' 
TCOON,ioos:station:TCOON:524:1,2019-08-01T11:12:00Z,29.8672,-93.9310,0.0,0.0,-9999.0,0.5,'11111222,99999999,11111222' 
TCOON,ioos:station:TCOON:524:1,2019-08-01T11:18:00Z,29.8672,-93.9310,0.0,1.0,20.0,1.5,'11111222,11111222,11111222' 
TCOON,ioos:station:TCOON:524:1,2019-08-01T11:24:00Z,29.8672,-93.9310,0.0,1.1,15.0,1.4,'11111222,11111222,11111222' 
TCOON,ioos:station:TCOON:524:1,2019-08-01T11:30:00Z,29.8672,-93.9310,0.0,0.0,-9999.0,0.5,'11111222,99999999,11111222' 
TCOON,ioos:station:TCOON:524:1,2019-08-01T11:36:00Z,29.8672,-93.9310,0.0,0.0,-9999.0,0.5,'11111222,99999999,11111222' 
TCOON,ioos:station:TCOON:524:1,2019-08-01T11:42:00Z,29.8672,-93.9310,0.0,0.0,-9999.0,0.5,'11111222,99999999,11111222' 
TCOON,ioos:station:TCOON:524:1,2019-08-01T11:48:00Z,29.8672,-93.9310,0.0,0.0,-9999.0,0.5,'11111222,99999999,11111222' 
TCOON,ioos:station:TCOON:524:1,2019-08-01T11:54:00Z,29.8672,-93.9310,0.0,0.0,-9999.0,0.0,'11111222,99999999,11111222' 
TCOON,ioos:station:TCOON:524:1,2019-08-01T12:00:00Z,29.8672,-93.9310,0.0,0.0,-9999.0,0.5,'11111222,99999999,11111222' 
TCOON,ioos:station:TCOON:524:1,2019-08-01T12:06:00Z,29.8672,-93.9310,0.0,0.0,-9999.0,0.5,'11111222,99999999,11111222' 
TCOON,ioos:station:TCOON:524:1,2019-08-01T12:12:00Z,29.8672,-93.9310,0.0,0.0,-9999.0,0.5,'11111222,99999999,11111222' 
TCOON,ioos:station:TCOON:524:1,2019-08-01T12:18:00Z,29.8672,-93.9310,0.0,0.0,-9999.0,0.0,'11111222,99999999,11111222' 
TCOON,ioos:station:TCOON:524:1,2019-08-01T12:24:00Z,29.8672,-93.9310,0.0,0.0,292.0,0.2,'11111222,11111222,11111222' 
TCOON,ioos:station:TCOON:524:1,2019-08-01T12:30:00Z,29.8672,-93.9310,0.0,0.5,290.0,1.0,'11111222,11111222,11111222' 
TCOON,ioos:station:TCOON:524:1,2019-08-01T12:36:00Z,29.8672,-93.9310,0.0,0.0,-9999.0,1.0,'11111222,99999999,11111222' 
TCOON,ioos:station:TCOON:524:1,2019-08-01T12:42:00Z,29.8672,-93.9310,0.0,1.0,360.0,1.5,'11111222,11144222,11111222' 
TCOON,ioos:station:TCOON:524:1,2019-08-01T12:48:00Z,29.8672,-93.9310,0.0,1.0,360.0,1.5,'11111222,11144222,11111222' 
TCOON,ioos:station:TCOON:524:1,2019-08-01T12:54:00Z,29.8672,-93.9310,0.0,0.5,20.0,1.5,'11111222,11111222,11111222' 
TCOON,ioos:station:TCOON:524:1,2019-08-01T13:00:00Z,29.8672,-93.9310,0.0,0.5,30.0,1.0,'11111222,11111222,11111222' 
TCOON,ioos:station:TCOON:524:1,2019-08-01T13:06:00Z,29.8672,-93.9310,0.0,0.0,-9999.0,0.5,'11111222,99999999,11111222' 
TCOON,ioos:station:TCOON:524:1,2019-08-01T13:12:00Z,29.8672,-93.9310,0.0,0.5,20.0,1.0,'11111222,11111222,11111222' 
TCOON,ioos:station:TCOON:524:1,2019-08-01T13:18:00Z,29.8672,-93.9310,0.0,1.0,20.0,2.1,'11111222,11111222,11111222' 
TCOON,ioos:station:TCOON:524:1,2019-08-01T13:24:00Z,29.8672,-93.9310,0.0,1.1,17.0,1.8,'11111222,11111222,11111222' 
TCOON,ioos:station:TCOON:524:1,2019-08-01T13:30:00Z,29.8672,-93.9310,0.0,1.5,20.0,2.1,'11111222,11111222,11111222' 
TCOON,ioos:station:TCOON:524:1,2019-08-01T13:36:00Z,29.8672,-93.9310,0.0,1.5,10.0,2.1,'11111222,11111222,11111222' 
TCOON,ioos:station:TCOON:524:1,2019-08-01T13:42:00Z,29.8672,-93.9310,0.0,2.1,10.0,2.6,'11111222,11111222,11111222' 
TCOON,ioos:station:TCOON:524:1,2019-08-01T13:48:00Z,29.8672,-93.9310,0.0,2.1,20.0,2.6,'11111222,11111222,11111222' 
TCOON,ioos:station:TCOON:524:1,2019-08-01T13:54:00Z,29.8672,-93.9310,0.0,2.1,20.0,3.1,'11111222,11111222,11111222' 
TCOON,ioos:station:TCOON:524:1,2019-08-01T14:00:00Z,29.8672,-93.9310,0.0,1.5,10.0,2.6,'11111222,11111222,11111222' 
TCOON,ioos:station:TCOON:524:1,2019-08-01T14:06:00Z,29.8672,-93.9310,0.0,1.0,40.0,2.1,'11111222,11111222,11111222' 
TCOON,ioos:station:TCOON:524:1,2019-08-01T14:12:00Z,29.8672,-93.9310,0.0,1.0,50.0,2.6,'11111222,11111222,11111222' 
TCOON,ioos:station:TCOON:524:1,2019-08-01T14:18:00Z,29.8672,-93.9310,0.0,1.5,10.0,2.1,'11111222,11111222,11111222' 
TCOON,ioos:station:TCOON:524:1,2019-08-01T14:24:00Z,29.8672,-93.9310,0.0,1.3,5.0,1.8,'11111222,11111222,11111222' 
TCOON,ioos:station:TCOON:524:1,2019-08-01T14:30:00Z,29.8672,-93.9310,0.0,2.1,60.0,3.1,'11111222,11111222,11111222' 
TCOON,ioos:station:TCOON:524:1,2019-08-01T14:36:00Z,29.8672,-93.9310,0.0,0.0,-9999.0,2.6,'11111222,99999999,11111222' 
TCOON,ioos:station:TCOON:524:1,2019-08-01T14:42:00Z,29.8672,-93.9310,0.0,0.0,-9999.0,1.0,'11111222,99999999,11111222' 
TCOON,ioos:station:TCOON:524:1,2019-08-01T14:48:00Z,29.8672,-93.9310,0.0,0.5,60.0,1.5,'11111222,11111222,11111222' 
TCOON,ioos:station:TCOON:524:1,2019-08-01T14:54:00Z,29.8672,-93.9310,0.0,2.6,340.0,3.6,'11111222,11111222,11111222' 
TCOON,ioos:station:TCOON:524:1,2019-08-01T15:00:00Z,29.8672,-93.9310,0.0,2.6,10.0,4.1,'11111222,11111222,11111222' 
TCOON,ioos:station:TCOON:524:1,2019-08-01T15:06:00Z,29.8672,-93.9310,0.0,3.1,340.0,4.6,'11111222,11111222,11111222' 
TCOON,ioos:station:TCOON:524:1,2019-08-01T15:12:00Z,29.8672,-93.9310,0.0,3.1,350.0,3.6,'11111222,11111222,11111222' 
TCOON,ioos:station:TCOON:524:1,2019-08-01T15:18:00Z,29.8672,-93.9310,0.0,2.6,350.0,3.6,'11111222,11111222,11111222' 
TCOON,ioos:station:TCOON:524:1,2019-08-01T15:24:00Z,29.8672,-93.9310,0.0,4.1,360.0,4.6,'11111222,11144222,11111222' 
TCOON,ioos:station:TCOON:524:1,2019-08-01T15:30:00Z,29.8672,-93.9310,0.0,4.0,3.0,4.7,'11111222,11111222,11111222' 
TCOON,ioos:station:TCOON:524:1,2019-08-01T15:36:00Z,29.8672,-93.9310,0.0,1.5,40.0,3.6,'11111222,11111222,11111222' 
TCOON,ioos:station:TCOON:524:1,2019-08-01T15:42:00Z,29.8672,-93.9310,0.0,1.5,60.0,3.1,'11111222,11111222,11111222' 
TCOON,ioos:station:TCOON:524:1,2019-08-01T15:48:00Z,29.8672,-93.9310,0.0,1.5,60.0,2.6,'11111222,11111222,11111222' 
TCOON,ioos:station:TCOON:524:1,2019-08-01T15:54:00Z,29.8672,-93.9310,0.0,1.5,20.0,2.6,'11111222,11111222,11111222' 
TCOON,ioos:station:TCOON:524:1,2019-08-01T16:00:00Z,29.8672,-93.9310,0.0,2.1,10.0,4.1,'11111222,11111222,11111222' 
TCOON,ioos:station:TCOON:524:1,2019-08-01T16:06:00Z,29.8672,-93.9310,0.0,1.5,40.0,2.6,'11111222,11111222,11111222' 
TCOON,ioos:station:TCOON:524:1,2019-08-01T16:12:00Z,29.8672,-93.9310,0.0,2.1,90.0,3.1,'11111222,11111222,11111222' 
TCOON,ioos:station:TCOON:524:1,2019-08-01T16:18:00Z,29.8672,-93.9310,0.0,2.6,110.0,3.6,'11111222,11111222,11111222' 
TCOON,ioos:station:TCOON:524:1,2019-08-01T16:24:00Z,29.8672,-93.9310,0.0,2.5,105.0,3.7,'11111222,11111222,11111222' 
TCOON,ioos:station:TCOON:524:1,2019-08-01T16:30:00Z,29.8672,-93.9310,0.0,3.1,80.0,3.6,'11111222,11111222,11111222' 
TCOON,ioos:station:TCOON:524:1,2019-08-01T16:36:00Z,29.8672,-93.9310,0.0,3.6,90.0,4.6,'11111222,11111222,11111222' 
TCOON,ioos:station:TCOON:524:1,2019-08-01T16:42:00Z,29.8672,-93.9310,0.0,3.1,80.0,4.6,'11111222,11111222,11111222' 
TCOON,ioos:station:TCOON:524:1,2019-08-01T16:48:00Z,29.8672,-93.9310,0.0,3.1,90.0,4.6,'11111222,11111222,11111222' 
TCOON,ioos:station:TCOON:524:1,2019-08-01T16:54:00Z,29.8672,-93.9310,0.0,3.6,90.0,4.6,'11111222,11111222,11111222' 
TCOON,ioos:station:TCOON:524:1,2019-08-01T17:00:00Z,29.8672,-93.9310,0.0,3.1,80.0,4.6,'11111222,11111222,11111222' 
TCOON,ioos:station:TCOON:524:1,2019-08-01T17:06:00Z,29.8672,-93.9310,0.0,2.6,80.0,4.1,'11111222,11111222,11111222' 
TCOON,ioos:station:TCOON:524:1,2019-08-01T17:12:00Z,29.8672,-93.9310,0.0,3.1,100.0,4.1,'11111222,11111222,11111222' 
TCOON,ioos:station:TCOON:524:1,2019-08-01T17:18:00Z,29.8672,-93.9310,0.0,3.1,120.0,4.6,'11111222,11111222,11111222' 
TCOON,ioos:station:TCOON:524:1,2019-08-01T17:24:00Z,29.8672,-93.9310,0.0,3.0,115.0,4.4,'11111222,11111222,11111222' 
TCOON,ioos:station:TCOON:524:1,2019-08-01T17:30:00Z,29.8672,-93.9310,0.0,5.7,120.0,7.7,'11111222,11111222,11111222' 
TCOON,ioos:station:TCOON:524:1,2019-08-01T17:36:00Z,29.8672,-93.9310,0.0,5.1,130.0,8.8,'11111222,11111222,11111222' 
TCOON,ioos:station:TCOON:524:1,2019-08-01T17:42:00Z,29.8672,-93.9310,0.0,5.1,120.0,7.7,'11111222,11111222,11111222' 
TCOON,ioos:station:TCOON:524:1,2019-08-01T17:48:00Z,29.8672,-93.9310,0.0,4.1,120.0,7.7,'11111222,11111222,11111222' 
TCOON,ioos:station:TCOON:524:1,2019-08-01T17:54:00Z,29.8672,-93.9310,0.0,3.6,130.0,5.7,'11111222,11111222,11111222' 
TCOON,ioos:station:TCOON:524:1,2019-08-01T18:00:00Z,29.8672,-93.9310,0.0,2.6,140.0,4.6,'11111222,11111222,11111222' 
TCOON,ioos:station:TCOON:524:1,2019-08-01T18:06:00Z,29.8672,-93.9310,0.0,3.1,130.0,5.1,'11111222,11111222,11111222' 
TCOON,ioos:station:TCOON:524:1,2019-08-01T18:12:00Z,29.8672,-93.9310,0.0,1.5,120.0,4.1,'11111222,11111222,11111222' 
TCOON,ioos:station:TCOON:524:1,2019-08-01T18:18:00Z,29.8672,-93.9310,0.0,2.6,90.0,3.1,'11111222,11111222,11111222' 
TCOON,ioos:station:TCOON:524:1,2019-08-01T18:24:00Z,29.8672,-93.9310,0.0,2.8,92.0,3.3,'11111222,11111222,11111222' 
TCOON,ioos:station:TCOON:524:1,2019-08-01T18:30:00Z,29.8672,-93.9310,0.0,2.6,120.0,3.6,'11111222,11111222,11111222' 
TCOON,ioos:station:TCOON:524:1,2019-08-01T18:42:00Z,29.8672,-93.9310,0.0,3.1,140.0,5.1,'11111222,11111222,11111222' 
TCOON,ioos:station:TCOON:524:1,2019-08-01T18:48:00Z,29.8672,-93.9310,0.0,3.1,140.0,5.1,'11111222,11111222,11111222' 
TCOON,ioos:station:TCOON:524:1,2019-08-01T18:54:00Z,29.8672,-93.9310,0.0,2.6,130.0,4.1,'11111222,11111222,11111222' 
TCOON,ioos:station:TCOON:524:1,2019-08-01T19:00:00Z,29.8672,-93.9310,0.0,2.6,130.0,4.6,'11111222,11111222,11111222' 
TCOON,ioos:station:TCOON:524:1,2019-08-01T19:06:00Z,29.8672,-93.9310,0.0,2.6,150.0,4.1,'11111222,11111222,11111222' 
TCOON,ioos:station:TCOON:524:1,2019-08-01T19:12:00Z,29.8672,-93.9310,0.0,3.1,130.0,4.6,'11111222,11111222,11111222' 
TCOON,ioos:station:TCOON:524:1,2019-08-01T19:18:00Z,29.8672,-93.9310,0.0,2.6,140.0,4.1,'11111222,11111222,11111222' 
TCOON,ioos:station:TCOON:524:1,2019-08-01T19:24:00Z,29.8672,-93.9310,0.0,2.6,142.0,4.1,'11111222,11111222,11111222' 
TCOON,ioos:station:TCOON:524:1,2019-08-01T19:30:00Z,29.8672,-93.9310,0.0,2.6,140.0,3.6,'11111222,11111222,11111222' 
TCOON,ioos:station:TCOON:524:1,2019-08-01T19:36:00Z,29.8672,-93.9310,0.0,2.1,150.0,3.6,'11111222,11111222,11111222' 
TCOON,ioos:station:TCOON:524:1,2019-08-01T19:42:00Z,29.8672,-93.9310,0.0,2.1,140.0,3.6,'11111222,11111222,11111222' 
TCOON,ioos:station:TCOON:524:1,2019-08-01T19:48:00Z,29.8672,-93.9310,0.0,2.1,140.0,3.1,'11111222,11111222,11111222' 
TCOON,ioos:station:TCOON:524:1,2019-08-01T19:54:00Z,29.8672,-93.9310,0.0,2.1,140.0,4.1,'11111222,11111222,11111222' 
TCOON,ioos:station:TCOON:524:1,2019-08-01T20:00:00Z,29.8672,-93.9310,0.0,2.1,140.0,3.6,'11111222,11111222,11111222' 
TCOON,ioos:station:TCOON:524:1,2019-08-01T20:06:00Z,29.8672,-93.9310,0.0,2.1,130.0,3.6,'11111222,11111222,11111222' 
TCOON,ioos:station:TCOON:524:1,2019-08-01T20:12:00Z,29.8672,-93.9310,0.0,2.1,130.0,3.1,'11111222,11111222,11111222' 
TCOON,ioos:station:TCOON:524:1,2019-08-01T20:18:00Z,29.8672,-93.9310,0.0,2.1,130.0,3.6,'11111222,11111222,11111222' 
TCOON,ioos:station:TCOON:524:1,2019-08-01T20:24:00Z,29.8672,-93.9310,0.0,2.0,130.0,3.7,'11111222,11111222,11111222' 
TCOON,ioos:station:TCOON:524:1,2019-08-01T20:30:00Z,29.8672,-93.9310,0.0,2.6,120.0,4.1,'11111222,11111222,11111222' 